Volver al catálogo

STARLINK-30430

ActivoComunicacionesVLEO
NORAD 57849·PAYLOAD·🇺🇸 United States

Lanzado Sep 12, 2023 desde Vandenberg Space Force Base

Loading…

Próximos Pases (próximas 24 horas)

TLE

ActualizadoSource: CelesTrak SupGP

Época: Sep 15, 2026, 03:18 UTC

1 57849C 23141K   26258.13798611  .00029479  00000+0  94793-3 0  2586
2 57849  53.1571 122.9870 0001282  83.3112 142.3913 15.31688356    17

Sigue STARLINK-30430 en tiempo real con AllMySat

Download on the App Store